Location: Harwich
(41.7160°N, 69.9939°W)
Time: 08:45:24
(UTC+02:00)

A-11 Canister half - Pass Details

Date: 01 March 2024
Orbit: 1513 x 1686 km, 47.2° (Epoch: 24 April)

Event Time Altitude Azimuth Distance (km) Brightness Sun altitude
Exits shadow 09:43:16 38° 299° (WNW) 2,364 9.6 -28.7°
Maximum altitude 09:47:40 66° 7° (N) 1,779 9.3 -27.9°
Drops below altitude 10° 09:57:27 10° 90° (E) 3,832 12.0 -26.1°
Sets 10:00:33 0° 93° (E) 4,793 12.8 -25.6°
